Location: Cornospital
(48.0620°N, 3.3837°W)
Time: 16:10:07
(UTC+00:00)

SL-14 R/B - Pass Details

Date: 17 June 2021
Orbit: 518 x 554 km, 82.4° (Epoch: 30 July)

Event Time Altitude Azimuth Distance (km) Brightness Sun altitude
Exits shadow 22:42:55 13° 214° (SW) 1,663 5.4 -15.6°
Maximum altitude 22:46:20 43° 284° (WNW) 787 4.3 -15.8°
Drops below altitude 10° 22:50:13 10° 357° (N) 1,839 7.2 -16.1°
Sets 22:52:28 0° 5° (N) 2,733 8.1 -16.2°
